User: anonymous   Login
Location: Seminole
(32.7190°N, 102.6440°W)
Time: 00:12:02
(UTC-06:00)
Language:

Meteor 2-10 - Orbit

View from above orbital plane
View from above orbital plane
View from above satellite
View from above satellite

Ground track
Ground track

The orbit data is extracted from the following two-line orbital elements,

1 14452U 83109A   17052.52699325  .00000035  00000-0  88744-5 0  9997
2 14452  81.1629 193.0584 0090797 357.1921   2.8735 14.26422099732539
Epoch (UTC): 21 February 2017 12:38:52
Eccentricity: 0.0090797
inclination: 81.1629°
perigee height: 738 km
apogee height: 869 km
right ascension of ascending node: 193.0584°
argument of perigee: 357.1921°
revolutions per day: 14.26422099
mean anomaly at epoch: 2.8735°
orbit number at epoch: 73253

The dashed part of the orbit path shows where the satellite is in the earth's shadow,  

DLR